Darlington, SC

8:13 AM EDT on October 18, 2019 (GMT -0400)
Darlington County Jetport

Weather History for KUDG - September, 2019

Change the Weather History Date:

Monday, September 23, 2019

  Actual Average (WUND) Record (WUND)
Temperature  
Mean Temperature 74 °F -  
Max Temperature 89 °F - - (-1)
Min Temperature 60 °F - - (-1)
Cooling Degree Days 10    
Growing Degree Days 24 (Base 50)    
Moisture  
Dew Point 62 °F    
Average Humidity 73    
Maximum Humidity 97    
Minimum Humidity 39    
Precipitation  
Precipitation 0.00 in - - ()
Sea Level Pressure  
Sea Level Pressure 30.05 in    
Wind  
Wind Speed 3 mph ()    
Max Wind Speed 8 mph    
Max Gust Speed -    
Visibility 9.9 miles    
Events      
Averages and records for this station are not official NWS values.
T = Trace of Precipitation, MM = Missing Value Source: Averaged Metar Reports

Daily Weather History Graph

Daily Weather History Graph

Search for Another Location

Airport or City:

Astronomy

Sep. 23, 2019 Rise Set
Actual Time 7:08 AM EDT 7:15 PM EDT
Civil Twilight 6:43 AM EDT 7:40 PM EDT
Nautical Twilight 6:13 AM EDT 8:09 PM EDT
Astronomical Twilight 5:44 AM EDT 8:39 PM EDT
Moon 1:05 AM EDT (9/23) 3:51 PM EDT (9/23)
Length of Visible Light 12h 57m
Length of Day
12h 07m
Waning Crescent, 33% of the Moon is Illuminated
Sep 23
Waning Crescent
Sep 28
New
Oct 5
First Quarter
Oct 13
Full
Oct 21
Last Quarter

Hourly Weather History & Observations

Time (EDT) Temp. Heat Index Dew Point Humidity Pressure Visibility Wind Dir Wind Speed Gust Speed Precip Events Conditions
12:56 AM 66.0 °F - 60.1 °F 81% 30.14 in 10.0 mi SW 3.5 mph - N/A   Clear
1:56 AM 63.0 °F - 60.1 °F 90% 30.13 in 10.0 mi SSW 3.5 mph - N/A   Clear
2:56 AM 62.1 °F - 59.0 °F 90% 30.12 in 10.0 mi Calm Calm - N/A   Clear
3:56 AM 62.1 °F - 60.1 °F 93% 30.10 in 10.0 mi Calm Calm - N/A   Clear
4:56 AM 60.1 °F - 59.0 °F 96% 30.10 in 10.0 mi Calm Calm - N/A   Clear
5:56 AM 60.1 °F - 59.0 °F 96% 30.10 in 10.0 mi Calm Calm - N/A   Clear
6:56 AM 60.1 °F - 57.9 °F 93% 30.11 in 10.0 mi Calm Calm - N/A   Clear
7:56 AM 61.0 °F - 60.1 °F 97% 30.12 in 7.0 mi Calm Calm - N/A   Clear
8:56 AM 68.0 °F - 64.0 °F 87% 30.12 in 10.0 mi SW 3.5 mph - N/A   Clear
9:56 AM 75.9 °F - 64.9 °F 69% 30.12 in 10.0 mi SW 8.1 mph - N/A   Clear
10:56 AM 79.0 °F - 64.9 °F 62% 30.11 in 10.0 mi SW 8.1 mph - N/A   Clear
12:56 PM 84.9 °F 85.9 °F 63.0 °F 48% 30.06 in 10.0 mi WSW 6.9 mph - N/A   Clear
2:56 PM 89.1 °F 89.0 °F 61.0 °F 39% 29.99 in 10.0 mi West 3.5 mph - N/A   Clear
3:56 PM 89.1 °F 89.0 °F 61.0 °F 39% 29.98 in 10.0 mi Calm Calm - N/A   Clear
4:56 PM 89.1 °F 89.0 °F 61.0 °F 39% 29.96 in 10.0 mi Variable 4.6 mph - N/A   Clear
5:56 PM 87.1 °F 87.8 °F 63.0 °F 44% 29.96 in 10.0 mi SSE 8.1 mph - N/A   Clear
6:56 PM 82.0 °F 83.8 °F 64.9 °F 56% 29.95 in 10.0 mi South 5.8 mph - N/A   Clear
8:56 PM 75.0 °F - 64.0 °F 69% 29.96 in 10.0 mi South 5.8 mph - N/A   Clear
9:56 PM 73.0 °F - 64.0 °F 73% 29.96 in 10.0 mi SSW 5.8 mph - N/A   Clear
10:56 PM 72.0 °F - 64.9 °F 78% 29.96 in 10.0 mi SSW 8.1 mph - N/A   Clear
11:56 PM 70.0 °F - 64.9 °F 84% 29.96 in 10.0 mi SSW 6.9 mph - N/A   Clear